1292371230957,3.16599
1292371290957,3.17411
1292371350957,3.18112
1292371410957,3.16978
1292371470957,3.14766
1292371530957,3.15237
1292371590957,3.13165
1292371650957,3.19384
1292371710957,3.17323
1292371770957,3.17317
1292371830957,3.15906
1292371890957,3.16344
1292371950957,3.16205
1292372010957,3.13591
1292372070957,3.15590
1292372130957,3.16112
1292372190957,3.16285
1292372250957,3.14651
1292372310957,3.16010
1292372370957,3.17334
1292372430957,3.15988
1292372490957,3.15312
1292372550957,3.19443
1292372610957,3.18875
1292372670957,3.14695
1292372730957,3.16014
1292372790957,3.19609
1292372850957,3.15972
1292372910957,3.14217
1292372970957,3.13500
1292373030957,3.17123
1292373090957,3.14953
1292373150957,3.19927
1292373210957,3.13289
1292373270957,3.17540
1292373330957,3.16218
1292373390957,3.16723
1292373450957,3.16625
1292373510957,3.18224
1292373570957,3.17242
1292373630957,3.15841
1292373690957,3.17874
1292373750957,3.17855
1292373810957,3.16276
1292373870957,3.14899
1292373930957,3.19881
1292373990957,3.15371
1292374050957,3.15376
1292374110957,3.15105
1292374170957,3.16196
1292374230957,3.17757
1292374290957,3.15697
1292374350957,3.19125
1292374410957,3.16980
1292374470957,3.18547
1292374530957,3.17622
1292374590957,3.19373
1292374650957,3.16358
1292374710957,3.19268
1292374770957,3.15805
1292374830967,3.17567
1292374890967,3.17354
1292374950967,3.17090
1292375010967,3.19121
1292375070967,3.16527
1292375130967,3.18177
1292375190967,3.16164
1292375250967,3.17465
1292375310967,3.21335
1292375370967,3.16089
1292375430967,3.19313
1292375490967,3.16402
1292375550967,3.16388
1292375610967,3.18972
1292375670967,3.17060
1292375730967,3.19510
1292375790967,3.15425
1292375850967,3.14937
1292375910967,3.17102
1292375970967,3.16109
1292376030967,3.20432
1292376090967,3.17272
1292376150967,3.19029
1292376210967,3.17875
1292376270967,3.19079
1292376330967,3.19506
1292376390967,3.21353
1292376450967,3.17385
1292376510967,3.16836
1292376570967,3.18977
1292376630967,3.18192
1292376690967,3.17180
1292376750967,3.19749
1292376810967,3.19222
1292376870967,3.18092
1292376930967,3.17730
1292376990967,3.18197
1292377050967,3.17704
1292377110967,3.16804
1292377170967,3.18400
1292377230967,3.16058
1292377290967,3.18738
1292377350967,3.16716
1292377410967,3.21309
1292377470967,3.18798
1292377530967,3.16685
1292377590967,3.16163
1292377650967,3.19921
1292377710967,3.20106
1292377770967,3.16065
1292377830967,3.16869
1292377890967,3.15933
1292377950967,3.19565
1292378010967,3.21036
1292378070967,3.20237
1292378130967,3.19875
1292378190967,3.20294
1292378250967,3.21067
1292378310967,3.18421
1292378370967,3.19769
1292378430978,3.18489
1292378490978,3.17631
1292378550978,3.18060
1292378610978,3.15689
1292378670978,3.19724
1292378730978,3.16743
1292378790978,3.17161
1292378850978,3.19126
1292378910978,3.17833
1292378970978,3.17369
1292379030978,3.17592
1292379090978,3.17162
1292379150978,3.15723
1292379210978,3.18233
1292379270978,3.18812
1292379330978,3.18601
1292379390978,3.18108
1292379450978,3.19981
1292379510978,3.16751
1292379570978,3.18702
1292379630978,3.18795
1292379690978,3.16682
1292379750978,3.16418
1292379810978,3.16847
1292379870978,3.17353
1292379930978,3.21245
1292379990978,3.18096
1292380050978,3.16260
1292380110978,3.19231
1292380170978,3.18257
1292380230978,3.16287
1292380290978,3.18060
1292380350978,3.19478
1292380410978,3.22348
1292380470978,3.19758
1292380530978,3.17668
1292380590978,3.17265
1292380650978,3.19454
1292380710978,3.17681
1292380770978,3.18753
1292380830978,3.20676
1292380890978,3.14825
1292380950978,3.19685
1292381010978,3.17345
1292381070978,3.19613
1292381130978,3.17665
1292381190978,3.19562
1292381250978,3.19942
1292381310978,3.17887
1292381370978,3.17460
1292381430978,3.21014
1292381490978,3.20595
1292381550978,3.20266
1292381610978,3.18726
1292381670978,3.19563
1292381730978,3.20895
1292381790978,3.19114
1292381850978,3.21012
1292381910978,3.19168
1292381970978,3.21964
1292382030988,3.21459
1292382090988,3.20386
1292382150988,3.21597
1292382210988,3.23620
1292382270988,3.21654
1292382330988,3.20895
1292382390988,3.20464
1292382450988,3.21534
1292382510988,3.19314
1292382570988,3.19479
1292382630988,3.19745
1292382690988,3.17566
1292382750988,3.23136
1292382810988,3.20906
1292382870988,3.21777
1292382930988,3.22201
1292382990988,3.23865
1292383050988,3.20011
1292383110988,3.22688
1292383170988,3.21993
1292383230988,3.21597
1292383290988,3.19344
1292383350988,3.21552
1292383410988,3.22478
1292383470988,3.23657
1292383530988,3.21507
1292383590988,3.20812
1292383650988,3.23313
1292383710988,3.22642
1292383770988,3.20609
1292383830988,3.21162
1292383890988,3.26263
1292383950988,3.23517
1292384010988,3.24745
1292384070988,3.21449
1292384130988,3.23593
1292384190988,3.21381
1292384250988,3.20180
1292384310988,3.23236
1292384370988,3.20567
1292384430988,3.20799
1292384490988,3.23674
1292384550988,3.20694
1292384610988,3.18878
1292384670988,3.20908
1292384730988,3.22530
1292384790988,3.22040
1292384850988,3.24373
1292384910988,3.19206
1292384970988,3.20396
1292385030988,3.19117
1292385090988,3.21274
1292385150988,3.21916
1292385210988,3.20488
1292385270988,3.21512
1292385330988,3.23307
1292385390988,3.24589
1292385450988,3.21614
1292385510988,3.20135
1292385570988,3.20316
1292385630998,3.23511
1292385690998,3.20925
1292385750998,3.21605
1292385810998,3.24298
1292385870998,3.23848
1292385930998,3.25137
1292385990998,3.23562
1292386050998,3.22469
1292386110998,3.21129
1292386170998,3.22423
1292386230998,3.22406
1292386290998,3.23856
1292386350998,3.20664
1292386410998,3.19998
1292386470998,3.22413
1292386530998,3.20081
1292386590998,3.21110
1292386650998,3.19352
1292386710998,3.18507
1292386770998,3.24224
1292386830998,3.18942
1292386890998,3.19329
1292386950998,3.23664
1292387010998,3.22803
1292387070998,3.23480
1292387130998,3.21990
1292387190998,3.22434
1292387250998,3.20662
1292387310998,3.19581
1292387370998,3.20416
1292387430998,3.23032
1292387490998,3.27751
1292387550998,3.22792
1292387610998,3.25602
1292387670998,3.28177
1292387730998,3.28230
1292387790998,3.28297
1292387850998,3.25084
1292387910998,3.25867
1292387970998,3.24766
1292388030998,3.25663
1292388090998,3.23433
1292388150998,3.20787
1292388210998,3.21964
1292388270998,3.21476
1292388330998,3.22549
1292388390998,3.21773
1292388450998,3.22454
1292388510998,3.23178
1292388570998,3.24117
1292388630998,3.22458
1292388690998,3.23903
1292388750998,3.25751
1292388810998,3.19435
1292388870998,3.21883
1292388930998,3.22338
1292388990998,3.21315
1292389050998,3.21360
1292389110998,3.19967
1292389170998,3.21363
1292389231009,3.22877
1292389291009,3.22405
1292389351009,3.26372
1292389411009,3.21726
1292389471009,3.23122
1292389531009,3.22193
1292389591009,3.23826
1292389651009,3.20830
1292389711009,3.23942
1292389771009,3.18307
1292389831009,3.23122
1292389891009,3.22866
1292390431009,3.18911
1292390491009,3.20891
1292390551009,3.21955
1292390611009,3.25738
1292390671009,3.23064
1292390731009,3.21100
1292390791009,3.23653
1292390851009,3.24309
1292390911009,3.21902
1292390971009,3.23834
1292391031009,3.19071
1292391091009,3.20043
1292391151009,3.22178
1292391211009,3.21974
1292391271009,3.23356
1292391331009,3.18874
1292391391009,3.21630
1292391451009,3.19856
1292391511009,3.21720
1292391571009,3.22341
1292391631009,3.21534
1292391691009,3.19991
1292391751009,3.18655
1292391811009,3.21776
1292391871009,3.22851
1292391931009,3.22607
1292391991009,3.20590
1292392051009,3.20053
1292392111009,3.22679
1292392171009,3.22821
1292392231009,3.20188
1292392291009,3.22889
1292392351009,3.21605
1292392411009,3.22817
1292392471009,3.21493
1292392531009,3.21543
1292392591009,3.23159
1292392651009,3.23306
1292392711009,3.21144
1292392771009,3.24317
1292392831020,3.21688
1292392891020,3.21074
1292392951020,3.20985
1292393011020,3.20596
1292393071020,3.21606
1292393131020,3.19149
1292393191020,3.18672
1292393251020,3.21489
1292393311020,3.18818
1292393371020,3.22457
1292393431020,3.18488
1292393491020,3.19943
1292393551020,3.24553
1292393611020,3.23731
1292393671020,3.17426
1292393731020,3.19773
1292393791020,3.21287
1292393851020,3.20067
1292393911020,3.19989
1292393971020,3.19801
1292394031020,3.20713
1292394091020,3.20606
1292394151020,3.19554
1292394211020,3.21537
1292394271020,3.17585
1292394331020,3.23511
1292394391020,3.20142
1292394451020,3.19875
1292394511020,3.19707
1292394571020,3.28273
1292394631020,3.23177
1292394691020,3.23629
1292394751020,3.22635
1292394811020,3.21182
1292394871020,3.27391
1292394931020,3.23053
1292394991020,3.27912
1292395051020,3.48494
1292395111020,3.77633
1292395171020,3.94285
1292395231020,3.83126
1292395291020,3.75491
1292395351020,3.76705
1292395411020,3.79939
1292395471020,3.78760
1292395531020,3.72246
1292395591020,3.70135
1292395651020,3.64669
1292395711020,3.56084
1292395771020,3.53133
1292395831020,3.52310
1292395891020,3.41148
1292395951020,3.41905
1292396011020,3.37610
1292396071020,3.35827
1292396131020,3.37191
1292396191020,3.33440
1292396251020,3.31583
1292396311020,3.32597
1292396371020,3.31819
1292396431031,3.28857
1292396491031,3.29588
1292396551031,3.29660
1292396611031,3.32209
1292396671031,3.31443
1292396731031,3.29667
1292396791031,3.30496
1292396851031,3.26704
1292396911031,3.25917
1292396971031,3.28983
1292397031031,3.26715
1292397091031,3.30476
1292397151031,3.29502
1292397211031,3.29998
1292397271031,3.26143
1292397331031,3.23875
1292397391031,3.28618
1292397451031,3.27960
1292397511031,3.26113
1292397571031,3.28694
1292397631031,3.25939
1292397691031,3.26773
1292397751031,3.25902
1292397811031,3.25752
1292397871031,3.28859
1292397931031,3.25495
1292397991031,3.26183
1292398051031,3.25216
1292398111031,3.24972
1292398171031,3.25726
1292398231031,3.25533
1292398291031,3.25962
1292398351031,3.25595
1292398411031,3.24705
1292398471031,3.25900
1292398531031,3.25395
1292398591031,3.26815
1292398651031,3.21722
1292398711031,3.21523
1292398771031,3.21170
1292398831031,3.24224
1292398891031,3.21586
1292398951031,3.23536
1292399011031,3.23788
1292399071031,3.24499
1292399131031,3.22484
1292399191031,3.22600
1292399251031,3.24343
1292399311031,3.21272
1292399371031,3.24652
1292399431031,3.24349
1292399491031,3.23073
1292399551031,3.21414
1292399611031,3.23223
1292399671031,3.25664
1292399731031,3.23757
1292399791031,3.25231
1292399851031,3.22812
1292399911031,3.21669
1292399971031,3.21335
1292400031042,3.23180
1292400091042,3.28423
1292400151042,3.19981
1292400211042,3.24905
1292400271042,3.23243
1292400331042,3.24399
1292400391042,3.22840
1292400451042,3.24445
1292400511042,3.21461
1292400571042,3.20046
1292400631042,3.22572
1292400691042,3.24400
1292400751042,3.24161
1292400811042,3.22490
1292400871042,3.22934
1292400931042,3.26000
1292400991042,3.23420
1292401051042,3.21535
1292401111042,3.25152
1292401171042,3.23910
1292401231042,3.22621
1292401291042,3.24308
1292401351042,3.23382
1292401411042,3.25556
1292401471042,3.23402
1292401531042,3.22032
1292401591042,3.24352
1292401651042,3.21123
1292401711042,3.24233
1292401771042,3.24461
1292401831042,3.23694
1292401891042,3.25866
1292401951042,3.27736
1292402011042,3.22572
1292402071042,3.22794
1292402131042,3.24681
1292402191042,3.22939
1292402251042,3.23404
1292402311042,3.22835
1292402371042,3.24003
1292402431042,3.24036
1292402491042,3.22116
1292402551042,3.23242
1292402611042,3.19180
1292402671042,3.24585
1292402731042,3.23614
1292402791042,3.22981
1292402851042,3.23314
1292402911042,3.21853
1292402971042,3.21005
1292403031042,3.20405
1292403091042,3.24905
1292403151042,3.19953
1292403211042,3.24381
1292403271042,3.21728
1292403331042,3.22967
1292403391042,3.19940
1292403451042,3.25238
1292403511042,3.23424
1292403571042,3.22915
1292403631054,3.23477
1292403691054,3.22964
1292403751054,3.24548
1292403811054,3.24037
1292403871054,3.18311
1292403931054,3.20641
1292403991054,3.22733
1292404051054,3.23011
1292404111054,3.21110
1292404171054,3.22315
1292404231054,3.22815
1292404291054,3.20088
1292404351054,3.20023
1292404411054,3.23468
1292404471054,3.22105
1292404531054,3.21929
1292404591054,3.20360
1292404651054,3.24233
1292404711054,3.19338
1292404771054,3.23572
1292404831054,3.22698
1292404891054,3.22384
1292404951054,3.24195
1292405011054,3.24807
1292405071054,3.23341
1292405131054,3.22212
1292405191054,3.22821
1292405251054,3.23364
1292405311054,3.22849
1292405371054,3.22862
1292405431054,3.21632
1292405491054,3.20503
1292405551054,3.17006
1292405611054,3.22085
1292405671054,3.20084
1292405731054,3.20138
1292405791054,3.22563
1292405851054,3.21114
1292405911054,3.20946
1292405971054,3.22187
1292406031054,3.24295
1292406091054,3.20819
1292406151054,3.24277
1292406211054,3.22074
1292406271054,3.20940
1292406331054,3.20108
1292406391054,3.20581
1292406451054,3.21167
1292406511054,3.23648
1292406571054,3.20013
1292406631054,3.19029
1292406691054,3.21728
1292406751054,3.23722
1292406811054,3.21959
1292406871054,3.20883
1292406931054,3.25333
1292406991054,3.21217
1292407051054,3.23698
1292407111054,3.19604
1292407171054,3.23654
1292407231066,3.23838
1292407291065,3.22088
1292407351065,3.25052
1292407411066,3.20688
1292407471066,3.20886
1292407531066,3.22711
1292407591066,3.19648
1292407651066,3.21301
1292407711066,3.21728
1292407771066,3.20465
1292407831066,3.21035
1292407891066,3.23631
1292407951065,3.23057
1292408011065,3.24101
1292408071065,3.21062
1292408131065,3.20792
1292408191065,3.22452
1292408251065,3.21449
1292408311065,3.22474
1292408371065,3.21669
1292408431066,3.25300
1292408491066,3.21361
1292408551066,3.21792
1292408611066,3.25826
1292408671065,3.21433
1292408731066,3.23929
1292408791066,3.18588
1292408851066,3.23174
1292408911066,3.19845
1292408971066,3.22313
1292409031066,3.23645
1292409091066,3.22364
1292409151066,3.21447
1292409211066,3.22457
1292409271066,3.20438
1292409331065,3.23370
1292409391065,3.20381
1292409451065,3.20956
1292409511065,3.21145
1292409571065,3.21188
1292409631065,3.21288
1292409691065,3.18828
1292409751066,3.21690
1292409811066,3.23052
1292409871066,3.22515
1292409931066,3.21158
1292409991065,3.20542
1292410051065,3.20293
1292410111066,3.22015
1292410171066,3.21611
1292410231066,3.22978
1292410291066,3.21923
1292410351066,3.20175
1292410411066,3.20234
1292410471066,3.19183
1292410531066,3.23909
1292410591066,3.18855
1292410651065,3.22482
1292410711065,3.22317
1292410771065,3.23013
1292410831078,3.22462
1292410891078,3.21887
1292410951078,3.21323
1292411011078,3.22553
1292411071078,3.20509
1292411131078,3.20767
1292411191078,3.18676
1292411251078,3.23606
1292411311078,3.19776
1292411371078,3.19289
1292411431078,3.17349
1292411491078,3.21336
1292411551078,3.21155
1292411611078,3.18732
1292411671078,3.20268
1292411731078,3.20299
1292411791078,3.20311
1292411851078,3.20057
1292411911078,3.22335
1292411971078,3.19664
1292412031078,3.19682
1292412091078,3.22045
1292412151078,3.19357
1292412211078,3.18994
1292412271078,3.22118
1292412331078,3.21535
1292412391078,3.21154
1292412451078,3.24894
1292412511078,3.19858
1292412571078,3.22200
1292412631078,3.19728
1292412691078,3.20415
1292412751078,3.20813
1292412811078,3.23565
1292412871078,3.19155
1292412931078,3.20163
1292412991078,3.20041
1292413051078,3.19604
1292413111078,3.21846
1292413171078,3.22877
1292413231078,3.18308
1292413291078,3.19485
1292413351078,3.22735
1292413411078,3.20755
1292413471078,3.19764
1292413531078,3.22207
1292413591078,3.22512
1292413651078,3.21883
1292413711078,3.18009
1292413771078,3.20691
1292413831078,3.20636
1292413891078,3.21201
1292413951078,3.21942
1292414011078,3.20892
1292414071078,3.22915
1292414131078,3.20130
1292414191078,3.20741
1292414251078,3.20668
1292414311078,3.20604
1292414371078,3.17504
1292414431090,3.21755
1292414491090,3.23046
1292414551090,3.19985
1292414611090,3.22698
1292414671090,3.20500
1292414731090,3.21301
1292414791090,3.22396
1292414851090,3.23106
1292414911090,3.28704
1292414971090,3.26861
1292415031090,3.26214
1292415091090,3.25348
1292415151090,3.26586
1292415211090,3.23121
1292415271090,3.24222
1292415331090,3.23754
1292415391090,3.22804
1292415451090,3.23090
1292415511090,3.22830
1292415571090,3.19563
1292415631090,3.20528
1292415691090,3.23023
1292415751090,3.20173
1292415811090,3.21683
1292415871090,3.25008
1292415931090,3.20552
1292415991090,3.23224
1292416051090,3.22053
1292416111090,3.24406
1292416171090,3.22844
1292416231090,3.18756
1292416291090,3.23948
1292416351090,3.20509
1292416411090,3.19419
1292416471090,3.21878
1292416531090,3.21525
1292416591090,3.21272
1292416651090,3.22158
1292416711090,3.23285
1292416771090,3.23624
1292416831090,3.23440
1292416891090,3.22406
1292416951090,3.23829
1292417011090,3.21498
1292417071090,3.19628
1292417131090,3.22495
1292417191090,3.21290
1292417251090,3.23712
1292417311090,3.19330
1292417371090,3.19353
1292417431090,3.18922
1292417491090,3.21556
1292417551090,3.22321
1292417611090,3.19626
1292417671090,3.22189
1292417731090,3.21633
1292417791090,3.21371
1292417851090,3.24381
1292417911090,3.21206
1292417971090,3.19607
1292418031102,3.22823
1292418091102,3.24025
1292418151102,3.19675
1292418211102,3.22618
1292418271102,3.22579
1292418331102,3.17652
1292418391102,3.23157
1292418451102,3.21223
1292418511102,3.21535
1292418571102,3.21751
1292418631102,3.22095
1292418691102,3.23522
1292418751102,3.22625
1292418811102,3.22366
1292418871102,3.23401
1292418931102,3.21670
1292418991102,3.22514
1292419051102,3.24480
1292419111102,3.20813
1292419171102,3.21228
1292419231102,3.19421
1292419291102,3.20195
1292419351102,3.22046
1292419411102,3.21898
1292419471102,3.21550
1292419531102,3.24724
1292419591102,3.22615
1292419651102,3.22087
1292419711102,3.21580
1292419771102,3.21914
1292419831102,3.24236
1292419891102,3.23232
1292419951102,3.21390
1292420011102,3.23950
1292420071102,3.22432
1292420131102,3.19867
1292420191102,3.21981
1292420251102,3.22629
1292420311102,3.23091
1292420371102,3.21603
1292420431102,3.25288
1292420491102,3.23074
1292420551102,3.22994
1292420611102,3.19966
1292420671102,3.23496
1292420731102,3.22543
1292420791102,3.23331
1292420851102,3.22429
1292420911102,3.22793
1292420971102,3.22220
1292421031102,3.23213
1292421091102,3.21336
1292421151102,3.21051
1292421211102,3.23647
1292421271102,3.21017
1292421331102,3.22326
1292421391102,3.22100
1292421451102,3.22729
1292421511102,3.22306
1292421571102,3.22891
1292421631114,3.20471
1292421691114,3.20189
1292421751114,3.24164
1292421811114,3.23359
1292421871114,3.20378
1292421931114,3.20300
1292421991114,3.21328
1292422051114,3.26229
1292422111114,3.21410
1292422171114,3.18206
1292422231114,3.22228
1292422291114,3.21489
1292422351114,3.21091
1292422411114,3.21738
1292422471114,3.22181
1292422531114,3.23800
1292422591114,3.22389
1292422651114,3.21533
1292422711114,3.20467
1292422771114,3.21399
1292422831114,3.19377
1292422891114,3.22288
1292422951114,3.21616
1292423011114,3.21006
1292423071114,3.19822
1292423131114,3.21686
1292423191114,3.21406
1292423251114,3.19216
1292423311114,3.22992
1292423371114,3.24280
1292423431114,3.23394
1292423491114,3.26207
1292423551114,3.23011
1292423611114,3.23010
1292423671114,3.24993
1292423731114,3.26908
1292423791114,3.27332
1292423851114,3.25288
1292423911114,3.20947
1292423971114,3.21271
1292424031114,3.22771
1292424091114,3.24568
1292424151114,3.23512
1292424211114,3.22652
1292424271114,3.23778
1292424331114,3.25524
1292424391114,3.20948
1292424451114,3.22459
1292424511114,3.22080
1292424571114,3.24067
1292424631114,3.20080
1292424691114,3.23518
1292424751114,3.22097
1292424811114,3.24310
1292424871114,3.22376
1292424931114,3.22434
1292424991114,3.26691
1292425051114,3.22904
1292425111114,3.23123
1292425171114,3.22961
1292425231127,3.23172
1292425291127,3.23459
1292425351127,3.18740
1292425411127,3.22867
1292425471127,3.22707
1292425531127,3.19850
1292425591127,3.24130
1292425651127,3.24312
1292425711127,3.23489
1292425771127,3.21401
1292425831127,3.22043
1292425891127,3.25160
1292425951127,3.21950
1292426011127,3.22715
1292426071127,3.21595
1292426131127,3.19545
1292426191127,3.23959
1292426251127,3.21350
1292426311127,3.19936
1292426371127,3.22269
1292426431127,3.22591
1292426491127,3.20151
1292426551127,3.20963
1292426611127,3.23078
1292426671127,3.26226
1292426731127,3.23739
1292426791127,3.21809
1292426851127,3.20979
1292426911127,3.21140
1292426971127,3.22189
1292427031127,3.19839
1292427091127,3.23414
1292427151127,3.20800
1292427211127,3.22837
1292427271127,3.23774
1292427331127,3.21636
1292427391127,3.22255
1292427451127,3.20266
1292427511127,3.23181
1292427571127,3.21175
1292427631127,3.23621
1292427691127,3.22738
1292427751127,3.19929
1292427811127,3.19663
1292427871127,3.21611
1292427931127,3.23599
1292427991127,3.21681
1292428051127,3.21548
1292428111127,3.18761
1292428171127,3.22293
1292428231127,3.22500
1292428291127,3.21132
1292428351127,3.24885
1292428411127,3.21944
1292428471127,3.19921
1292428531127,3.20866
1292428591127,3.24135
1292428651127,3.23775
1292428711127,3.18670
1292428771127,3.21241
1292428831139,3.23173
1292428891139,3.19302
1292428951139,3.22747
1292429011139,3.20446
1292429071139,3.20806
1292429131139,3.19716
1292429191139,3.20106
1292429251139,3.24316
1292429311139,3.21605
1292429371139,3.20036
1292429431139,3.18704
1292429491139,3.21252
1292429551139,3.23679
1292429611139,3.18884
1292429671139,3.21884
1292429731139,3.18782
1292429791139,3.20339
1292429851139,3.21097
1292429911139,3.22976
1292429971139,3.19419
1292430031139,3.19527
1292430091139,3.19019
1292430151139,3.21829
1292430211139,3.20620
1292430271139,3.23097
1292430331139,3.19611
1292430391139,3.19668
1292430451139,3.20125
1292430511139,3.20614
1292430571139,3.21302
1292430631139,3.17443
1292430691139,3.20544
1292430751139,3.20500
1292430811139,3.19873
1292430871139,3.22458
1292430931139,3.19066
1292430991139,3.19973
1292431051139,3.19392
1292431111139,3.20658
1292431171139,3.18585
1292431231139,3.20039
1292431291139,3.19055
1292431351139,3.18992
1292431411139,3.20013
1292431471139,3.19454
1292431531139,3.21791
1292431591139,3.19680
1292431651139,3.21870
1292431711139,3.19087
1292431771139,3.18179
1292431831139,3.19674
1292431891139,3.18899
1292431951139,3.22654
1292432011139,3.19635
1292432071139,3.18404
1292432131139,3.21683
1292432191139,3.20469
1292432251139,3.21793
1292432311139,3.18622
1292432371139,3.23938
1292432431151,3.20635
1292432491151,3.16789
1292432551151,3.20515
1292432611151,3.15480
1292432671151,3.18621
1292432731151,3.19229
1292432791151,3.18028
1292432851151,3.19693
1292432911151,3.18964
1292432971151,3.19177
1292433031151,3.18316
1292433091151,3.18419
1292433151151,3.21368
1292433211151,3.21557
1292433271151,3.21466
1292433331151,3.18351
1292433391151,3.23847
1292433451151,3.20427
1292433511151,3.19603
1292433571151,3.19616
1292433631151,3.17789
1292433691151,3.21467
1292433751151,3.20552
1292433811151,3.19352
1292433871151,3.18486
1292433931151,3.19566
1292433991151,3.19820
1292434051151,3.19137
1292434111151,3.22138
1292434171151,3.16208
1292434231151,3.16979
1292434291151,3.19043
1292434351151,3.19060
1292434411151,3.20021
1292434471151,3.18112
1292434531151,3.19752
1292434591151,3.15016
1292434651151,3.18726
1292434711151,3.19360
1292434771151,3.20462
1292434831151,3.18993
1292434891151,3.22918
1292434951151,3.18788
1292435011151,3.17926
1292435071151,3.17485
1292435131151,3.17847
1292435191151,3.17254
1292435251151,3.18902
1292435311151,3.21900
1292435371151,3.20369
1292435431151,3.20388
1292435491151,3.18927
1292435551151,3.19765
1292435611151,3.19474
1292435671151,3.21757
1292435731151,3.20044
1292435791151,3.19459
1292435851151,3.16474
1292435911151,3.20131
1292435971151,3.18563
1292436031163,3.19728
1292436091163,3.22308
1292436151163,3.18195
1292436211163,3.18609
1292436271163,3.21138
1292436331163,3.21187
1292436391163,3.19934
1292436451163,3.19808
1292436511163,3.20518
1292436571163,3.19168
1292436631163,3.19143
1292436691163,3.21980
1292436751163,3.18941
1292436811163,3.19813
1292436871163,3.21248
1292436931163,3.19286
1292436991163,3.20422
1292437051163,3.16524